Tracking 30922 objects as of 2-Jul-2025
HD Live streaming from Space Station
objects crossing your sky now

STARLINK-32339

Track STARLINK-32339 now!
10-day predictions
STARLINK-32339 is classified as:


NORAD ID: 61640
Int'l Code: 2024-191V
Perigee: 489.6 km
Apogee: 490.8 km
Inclination: 43.0 °
Period: 94.3 minutes
Semi major axis: 6861 km
RCS: Unknown
Launch date: October 23, 2024
Source: United States (US)
Launch site: AIR FORCE EASTERN TEST RANGE (AFETR)
Your satellite tracking list
CZ-4B DEB
Track 1 satellite(s)




NASA's NSSDC Master Catalog

Two Line Element Set (TLE):
1 61640U 24191V   25182.56022630  .00000761  00000-0  37161-4 0  9992
2 61640  42.9995 132.3823 0000828 249.5975 110.4787 15.27576823 39127
Source of the keplerian elements: AFSPC